NOAA 16 DEB, 42335

Orbit data source: Space-Track

NOAA 16 DEB, 42335 is space debris in SSO originally from a launch on Thu, 21 Sep 2000 UTC launched from the Air Force Western Test Range (AFWTR). Debris objects in space refer to the collection of defunct objects orbiting the Earth. Examples of debris include non-operational satellites, rocket bodies, and fragments generated from explosions, collisions, or faulty payload assembly.

Loading next visibility...
Identifier
42335, 2000-055QB
Orbit
SSO
Country
Flag of USUS
Related business
Manufacturer
Unknown
Mission
Spacecraft
Bus & Motor
Unknown
Mass
Unknown
Launch date (UTC)
2000-09-21 (25 years ago)
Launch vehicle
Unknown
Launch site
Air Force Western Test Range (AFWTR)
Object type
Payload
Rocket body
Debris
Shape & HBR
Unknown shape, 0.1 m
Radar Cross Section
Small (<0.1 m²)

Expand to show TLE details & history
Last TLE update: 1 day ago

TLE from 1 day ago
0 NOAA 16 DEB
1 42335U 00055QB  26072.96435768  .00004639  00000-0  16250-2 0  9990
2 42335  98.5632 132.5802 0026687 119.3778 241.0078 14.35360411519542
Epoch: 2026-03-13T23:08Z
TLE epoch observation values (Epoch: 2026-03-13T23:08:40.503Z)
Latitude
0.00006°
Longitude
-26.18091°
Altitude
786.101 km
Speed
7.456 km/s
True Right ascension
08h 50m 19s
True Declination
0° 00' 00"
Sunlit
Object was in full shadow at epoch
Visualization orbit readout
Latitude
Unknown
Longitude
Unknown
Altitude
Unknown
Speed
Unknown
Apparent Right ascension
Unknown
Apparent Declination
Unknown
Sunlit
N/A
Visualization observer readout
Local Sidereal Time
05:48:18
Azimuth
Unknown
Elevation
Unknown
Doppler factor
Unknown
Orbital elements
Apogee altitude
790.079 km
Perigee altitude
751.921 km
Semi-major axis
7,149.137 km
Eccentricity
0.00267
Inclination
98.5632°
RAAN
132.5802°
Arg. of periapsis
119.3778°
True anomaly
240.74074°
Mean anomaly
241.0078°
Eccentric anomaly
240.87423°
Mean motion
3.59056 °/min
Orbital period
100.26 mins
BSTAR
0.001625
Loading maneuver chart data...
Computing Atmospheric mass density...
Loading historical data...
Loading historical data...
Loading historical data...
Loading historical data...
Loading historical data...
Loading historical data...
Loading historical data...

Documentation

Showing up to 5 results
|